Tracking 23612 objects as of 17-Sep-2021
HD Live streaming from Space Station
objects crossing your sky now
Track INSPIRATION-4

SL-8 R/B

Track SL-8 R/B now!
10-day predictions
SL-8 R/B is classified as:


NORAD ID: 19257
Int'l Code: 1988-053B
Perigee: 760.1 km
Apogee: 787.5 km
Inclination: 74.0 °
Period: 100.2 minutes
Semi major axis: 7144 km
RCS: 4.3504 m2 (large)
Launch date: June 21, 1988
Source: Commonwealth of Independent States (former USSR) (CIS)
Launch site: PLESETSK MISSILE AND SPACE COMPLEX (PKMTR)

Note: This is a ROCKET BODY
aabbcc
Your satellite tracking list
Your tracking list is empty




NASA's NSSDC Master Catalog

Two Line Element Set (TLE):
1 19257U 88053B   21259.71351714 -.00000054  00000-0 -92732-5 0  9995
2 19257  74.0455 242.0003 0019185 109.2215  63.4635 14.37530350741567
Source of the keplerian elements: AFSPC